SYN001 CYUL-KBOS

Flight info

Callsign SYN001
Flight time N/A
Altitude 35000
Route OVAXO DCT VIRKA DCT TEMPR DCT ENE OOSHN5
Aircraft BCS3/M-SBDE2E3GIRWXY/LB1

Departure

Time 2026-05-07 00:48
Airport Montreal / Pierre Elliott Trudeau International Airport (CYUL)

Arrival

Time N/A
Airport Boston Logan International Airport (KBOS)
Time Latitude Longitude Altitude Speed Heading
2026-05-07 00:24 45.45939 -73.75043 112 ft 0 kts 180°
2026-05-07 00:37 45.45947 -73.75043 112 ft 3 kts 180°
2026-05-07 00:37 45.45966 -73.75042 110 ft 3 kts 176°
2026-05-07 00:38 45.45984 -73.75049 112 ft 3 kts 160°
2026-05-07 00:38 45.46002 -73.75061 111 ft 3 kts 134°
2026-05-07 00:38 45.46012 -73.75084 110 ft 3 kts 103°
2026-05-07 00:38 45.46013 -73.75089 112 ft 0 kts 103°
2026-05-07 00:40 45.46013 -73.75088 112 ft 0 kts 103°
2026-05-07 00:40 45.46009 -73.75061 112 ft 10 kts 102°
2026-05-07 00:40 45.45988 -73.74940 113 ft 14 kts 100°
2026-05-07 00:40 45.45983 -73.74820 110 ft 11 kts 92°
2026-05-07 00:41 45.45958 -73.74715 111 ft 12 kts 115°
2026-05-07 00:41 45.45957 -73.74598 110 ft 13 kts 75°
2026-05-07 00:41 45.45987 -73.74462 111 ft 15 kts 70°
2026-05-07 00:41 45.46042 -73.74330 109 ft 17 kts 50°
2026-05-07 00:42 45.46115 -73.74219 110 ft 12 kts 43°
2026-05-07 00:42 45.46139 -73.74106 108 ft 14 kts 83°
2026-05-07 00:42 45.46190 -73.73988 108 ft 15 kts 43°
2026-05-07 00:42 45.46264 -73.73887 109 ft 15 kts 43°
2026-05-07 00:43 45.46343 -73.73782 110 ft 16 kts 43°
2026-05-07 00:43 45.46421 -73.73677 114 ft 15 kts 43°
2026-05-07 00:43 45.46497 -73.73575 114 ft 17 kts 43°
2026-05-07 00:43 45.46616 -73.73427 114 ft 28 kts 41°
2026-05-07 00:44 45.46779 -73.73216 114 ft 33 kts 43°
2026-05-07 00:44 45.46947 -73.72997 119 ft 32 kts 43°
2026-05-07 00:44 45.47109 -73.72784 123 ft 32 kts 43°
2026-05-07 00:44 45.47274 -73.72569 118 ft 33 kts 43°
2026-05-07 00:45 45.47441 -73.72350 122 ft 33 kts 42°
2026-05-07 00:45 45.47605 -73.72133 125 ft 32 kts 43°
2026-05-07 00:45 45.47754 -73.71935 127 ft 19 kts 43°
2026-05-07 00:45 45.47792 -73.71773 124 ft 19 kts 128°
2026-05-07 00:46 45.47755 -73.71719 122 ft 0 kts 130°
2026-05-07 00:46 45.47754 -73.71718 122 ft 1 kts 130°
2026-05-07 00:46 45.47746 -73.71704 127 ft 3 kts 130°
2026-05-07 00:47 45.47705 -73.71654 128 ft 15 kts 162°
2026-05-07 00:47 45.47559 -73.71794 128 ft 51 kts 223°
2026-05-07 00:47 45.47095 -73.72407 119 ft 128 kts 223°
2026-05-07 00:47 45.46351 -73.73383 682 ft 147 kts 223°
2026-05-07 00:48 45.45588 -73.74375 1654 ft 150 kts 224°
2026-05-07 00:48 45.44764 -73.75393 2478 ft 166 kts 224°
2026-05-07 00:48 45.43808 -73.76537 2976 ft 197 kts 224°
2026-05-07 00:48 45.42713 -73.77827 3023 ft 204 kts 219°
2026-05-07 00:49 45.41341 -73.78421 3050 ft 228 kts 182°
2026-05-07 00:49 45.39751 -73.77668 3748 ft 256 kts 147°
2026-05-07 00:49 45.38531 -73.75729 4764 ft 272 kts 117°
2026-05-07 00:49 45.37956 -73.73150 5969 ft 277 kts 102°
2026-05-07 00:50 45.37502 -73.70490 7044 ft 285 kts 105°
2026-05-07 00:50 45.36941 -73.67748 8071 ft 292 kts 109°
2026-05-07 00:50 45.36293 -73.64957 9067 ft 301 kts 112°
2026-05-07 00:50 45.35586 -73.62114 10006 ft 308 kts 114°
2026-05-07 00:51 45.34831 -73.59209 10673 ft 323 kts 114°
2026-05-07 00:51 45.34023 -73.56137 11183 ft 341 kts 114°
2026-05-07 00:51 45.33176 -73.52919 11838 ft 350 kts 114°
2026-05-07 00:51 45.32316 -73.49640 12546 ft 357 kts 115°
2026-05-07 00:52 45.31443 -73.46318 13281 ft 362 kts 115°
2026-05-07 00:52 45.30560 -73.42956 13992 ft 365 kts 115°
2026-05-07 00:52 45.29669 -73.39567 14689 ft 368 kts 115°
2026-05-07 00:52 45.28768 -73.36145 15392 ft 371 kts 116°
2026-05-07 00:53 45.27873 -73.32751 16061 ft 374 kts 116°
2026-05-07 00:53 45.26953 -73.29271 16738 ft 376 kts 117°
2026-05-07 00:53 45.25659 -73.26130 17408 ft 364 kts 138°
2026-05-07 00:53 45.23747 -73.23906 18081 ft 349 kts 160°
2026-05-07 00:54 45.21511 -73.22665 18678 ft 342 kts 171°
2026-05-07 00:54 45.19237 -73.21855 19289 ft 341 kts 175°
2026-05-07 00:54 45.16896 -73.21187 19857 ft 344 kts 177°
2026-05-07 00:54 45.14531 -73.20592 20454 ft 346 kts 178°
2026-05-07 00:55 45.12145 -73.20036 21061 ft 348 kts 178°
2026-05-07 00:55 45.09734 -73.19485 21652 ft 351 kts 178°
2026-05-07 00:55 45.07312 -73.18935 22252 ft 354 kts 178°
2026-05-07 00:55 45.04867 -73.18381 22816 ft 357 kts 178°
2026-05-07 00:56 45.02464 -73.17208 23358 ft 378 kts 159°
2026-05-07 00:56 45.00362 -73.14845 23873 ft 396 kts 141°
2026-05-07 00:56 44.98542 -73.11884 24341 ft 402 kts 137°
2026-05-07 00:56 44.96772 -73.08823 24846 ft 403 kts 136°
2026-05-07 00:57 44.95002 -73.05747 25335 ft 405 kts 136°
2026-05-07 00:57 44.93220 -73.02655 25794 ft 406 kts 136°
2026-05-07 00:57 44.91430 -72.99555 26255 ft 408 kts 136°
2026-05-07 00:57 44.89631 -72.96443 26685 ft 410 kts 136°
2026-05-07 00:58 44.87848 -72.93363 27111 ft 412 kts 136°
2026-05-07 00:58 44.86030 -72.90226 27547 ft 413 kts 136°
2026-05-07 00:58 44.84206 -72.87084 27967 ft 415 kts 136°
2026-05-07 00:58 44.82367 -72.83920 28359 ft 418 kts 136°
2026-05-07 00:59 44.78664 -72.77561 29115 ft 422 kts 135°
2026-05-07 00:59 44.76798 -72.74362 29489 ft 424 kts 135°
2026-05-07 00:59 44.74915 -72.71137 29847 ft 426 kts 135°
2026-05-07 01:00 44.73048 -72.67944 30072 ft 429 kts 135°
2026-05-07 01:00 44.71140 -72.64685 30303 ft 432 kts 135°
2026-05-07 01:00 44.69223 -72.61413 30504 ft 436 kts 136°
2026-05-07 01:00 44.67284 -72.58108 30705 ft 439 kts 136°
2026-05-07 01:01 44.65333 -72.54786 30905 ft 442 kts 136°
2026-05-07 01:01 44.64029 -72.52568 31012 ft 445 kts 136°
2026-05-07 01:01 44.62052 -72.49209 31217 ft 447 kts 136°
2026-05-07 01:01 44.59397 -72.44705 31447 ft 452 kts 136°
2026-05-07 01:02 44.57387 -72.41299 31606 ft 455 kts 136°
2026-05-07 01:02 44.56016 -72.38978 31740 ft 457 kts 136°
2026-05-07 01:02 44.54003 -72.35576 31909 ft 460 kts 136°
2026-05-07 01:02 44.51949 -72.32106 32041 ft 463 kts 136°
2026-05-07 01:03 44.49887 -72.28627 32187 ft 466 kts 136°
2026-05-07 01:03 44.47810 -72.25128 32339 ft 469 kts 136°
2026-05-07 01:03 44.45719 -72.21608 32474 ft 471 kts 137°
2026-05-07 01:03 44.43610 -72.18063 32631 ft 474 kts 137°
2026-05-07 01:04 44.41495 -72.14513 32760 ft 476 kts 137°
2026-05-07 01:04 44.39365 -72.10943 32889 ft 478 kts 137°
2026-05-07 01:04 44.37229 -72.07367 33003 ft 481 kts 137°
2026-05-07 01:04 44.35079 -72.03772 33129 ft 483 kts 137°
2026-05-07 01:05 44.32915 -72.00157 33272 ft 485 kts 137°
2026-05-07 01:05 44.30746 -71.96537 33422 ft 486 kts 137°
2026-05-07 01:05 44.28571 -71.92914 33566 ft 487 kts 137°
2026-05-07 01:05 44.26421 -71.89337 33697 ft 489 kts 137°
2026-05-07 01:06 44.24242 -71.85714 33863 ft 490 kts 137°
2026-05-07 01:06 44.22038 -71.82056 34057 ft 490 kts 137°
2026-05-07 01:06 44.19839 -71.78410 34201 ft 490 kts 138°
2026-05-07 01:06 44.17646 -71.74778 34364 ft 491 kts 138°
2026-05-07 01:07 44.15455 -71.71154 34535 ft 491 kts 138°
2026-05-07 01:07 44.13238 -71.67493 34741 ft 490 kts 138°
2026-05-07 01:07 44.11032 -71.63856 34825 ft 493 kts 138°
2026-05-07 01:08 44.06598 -71.56564 34799 ft 500 kts 138°
2026-05-07 01:08 44.02171 -71.49280 34772 ft 485 kts 138°
2026-05-07 01:09 43.97780 -71.42093 34768 ft 491 kts 138°
2026-05-07 01:09 43.93312 -71.34804 34756 ft 499 kts 138°
2026-05-07 01:10 43.88810 -71.27466 34740 ft 494 kts 139°
2026-05-07 01:10 43.84160 -71.20607 34744 ft 486 kts 142°
2026-05-07 01:11 43.80424 -71.15256 34743 ft 494 kts 142°
2026-05-07 01:11 43.77388 -71.10912 34277 ft 507 kts 142°
2026-05-07 01:11 43.74923 -71.07388 33328 ft 511 kts 142°
2026-05-07 01:12 43.72470 -71.03872 32433 ft 502 kts 142°
2026-05-07 01:12 43.70074 -71.00435 31727 ft 490 kts 142°
2026-05-07 01:12 43.67736 -70.97085 31070 ft 479 kts 142°
2026-05-07 01:12 43.65441 -70.93804 30428 ft 469 kts 142°
2026-05-07 01:13 43.63193 -70.90597 29776 ft 461 kts 141°
2026-05-07 01:13 43.60983 -70.87445 29043 ft 453 kts 142°
2026-05-07 01:13 43.58805 -70.84344 28392 ft 444 kts 142°
2026-05-07 01:13 43.56672 -70.81311 27778 ft 436 kts 142°
2026-05-07 01:14 43.54569 -70.78325 27173 ft 433 kts 142°
2026-05-07 01:14 43.52498 -70.75391 26584 ft 431 kts 142°
2026-05-07 01:14 43.50427 -70.72458 25982 ft 423 kts 142°
2026-05-07 01:14 43.48397 -70.69582 25400 ft 415 kts 142°
2026-05-07 01:15 43.46397 -70.66754 24830 ft 410 kts 142°
2026-05-07 01:15 43.44416 -70.63958 24258 ft 405 kts 142°
2026-05-07 01:15 43.42386 -70.61361 23794 ft 388 kts 152°
2026-05-07 01:15 43.40198 -70.59279 23505 ft 381 kts 155°
2026-05-07 01:16 43.37937 -70.57276 23215 ft 389 kts 155°
2026-05-07 01:16 43.35680 -70.55286 22910 ft 382 kts 155°
2026-05-07 01:16 43.33461 -70.53329 22618 ft 377 kts 155°
2026-05-07 01:16 43.31245 -70.51382 22358 ft 379 kts 155°
2026-05-07 01:17 43.29036 -70.49442 22335 ft 376 kts 156°
2026-05-07 01:17 43.26822 -70.47501 22334 ft 379 kts 156°
2026-05-07 01:17 43.24590 -70.45546 22330 ft 380 kts 156°
2026-05-07 01:17 43.22367 -70.43597 22329 ft 379 kts 156°
2026-05-07 01:18 43.20168 -70.41672 22328 ft 379 kts 156°
2026-05-07 01:18 43.17936 -70.39722 22329 ft 381 kts 156°
2026-05-07 01:18 43.15704 -70.37771 22322 ft 380 kts 156°
2026-05-07 01:18 43.13470 -70.35820 22325 ft 380 kts 156°
2026-05-07 01:19 43.11238 -70.33874 22321 ft 381 kts 156°
2026-05-07 01:19 43.09004 -70.31926 22317 ft 381 kts 156°
2026-05-07 01:19 43.06763 -70.29974 22313 ft 381 kts 156°
2026-05-07 01:19 43.04522 -70.28024 22310 ft 382 kts 156°
2026-05-07 01:20 43.02283 -70.26078 22309 ft 382 kts 156°
2026-05-07 01:20 43.00064 -70.24151 22303 ft 383 kts 156°
2026-05-07 01:20 42.97816 -70.22200 22298 ft 383 kts 156°
2026-05-07 01:20 42.95565 -70.20249 22294 ft 384 kts 156°
2026-05-07 01:21 42.93278 -70.18267 22231 ft 385 kts 156°
2026-05-07 01:21 42.91026 -70.16321 21685 ft 390 kts 156°
2026-05-07 01:21 42.88745 -70.14346 21144 ft 385 kts 156°
2026-05-07 01:21 42.86501 -70.12401 20655 ft 379 kts 156°
2026-05-07 01:22 42.84280 -70.10479 20168 ft 374 kts 156°
2026-05-07 01:22 42.82098 -70.08594 19692 ft 369 kts 157°
2026-05-07 01:22 42.79933 -70.06727 19218 ft 366 kts 157°
2026-05-07 01:22 42.77709 -70.05160 18643 ft 350 kts 172°
2026-05-07 01:23 42.75387 -70.04777 18181 ft 325 kts 192°
2026-05-07 01:23 42.73208 -70.05272 17745 ft 313 kts 200°
2026-05-07 01:23 42.71112 -70.06051 17335 ft 312 kts 203°
2026-05-07 01:23 42.69045 -70.06949 16928 ft 311 kts 205°
2026-05-07 01:24 42.67018 -70.07910 16576 ft 303 kts 208°
2026-05-07 01:24 42.65353 -70.09507 16229 ft 295 kts 230°
2026-05-07 01:24 42.64210 -70.11805 15880 ft 294 kts 240°
2026-05-07 01:24 42.63264 -70.14262 15504 ft 292 kts 243°
2026-05-07 01:25 42.62377 -70.16745 15120 ft 292 kts 244°
2026-05-07 01:25 42.61515 -70.19218 14743 ft 291 kts 244°
2026-05-07 01:25 42.60655 -70.21698 14365 ft 290 kts 244°
2026-05-07 01:25 42.59879 -70.24197 14011 ft 283 kts 249°
2026-05-07 01:26 42.59246 -70.26654 13700 ft 269 kts 250°
2026-05-07 01:26 42.58656 -70.29003 13389 ft 258 kts 250°
2026-05-07 01:26 42.58078 -70.31297 13102 ft 257 kts 250°
2026-05-07 01:26 42.57499 -70.33597 12819 ft 258 kts 250°
2026-05-07 01:27 42.56918 -70.35899 12544 ft 257 kts 250°
2026-05-07 01:27 42.56338 -70.38191 12271 ft 256 kts 250°
2026-05-07 01:27 42.55758 -70.40481 11993 ft 256 kts 250°
2026-05-07 01:27 42.55179 -70.42768 11729 ft 256 kts 250°
2026-05-07 01:28 42.54607 -70.45021 11462 ft 255 kts 250°
2026-05-07 01:28 42.54026 -70.47305 11190 ft 256 kts 250°
2026-05-07 01:28 42.53448 -70.49578 10919 ft 255 kts 250°
2026-05-07 01:28 42.52871 -70.51859 10651 ft 255 kts 251°
2026-05-07 01:29 42.52335 -70.54152 10381 ft 254 kts 252°
2026-05-07 01:29 42.51811 -70.56442 10112 ft 254 kts 252°
2026-05-07 01:29 42.51286 -70.58732 9841 ft 254 kts 252°
2026-05-07 01:29 42.50765 -70.61004 9557 ft 252 kts 252°
2026-05-07 01:30 42.50257 -70.63217 9263 ft 240 kts 252°
2026-05-07 01:30 42.49770 -70.65329 9020 ft 230 kts 252°
2026-05-07 01:30 42.49295 -70.67392 8780 ft 229 kts 252°
2026-05-07 01:30 42.48818 -70.69454 8527 ft 228 kts 252°
2026-05-07 01:31 42.48346 -70.71498 8298 ft 227 kts 252°
2026-05-07 01:31 42.47872 -70.73542 8058 ft 227 kts 252°
2026-05-07 01:31 42.47410 -70.75536 7817 ft 217 kts 252°
2026-05-07 01:31 42.46964 -70.77457 7597 ft 213 kts 252°
2026-05-07 01:32 42.46512 -70.79404 7373 ft 217 kts 252°
2026-05-07 01:32 42.46001 -70.81316 7100 ft 217 kts 240°
2026-05-07 01:32 42.44893 -70.82700 6867 ft 222 kts 212°
2026-05-07 01:32 42.43451 -70.83499 6626 ft 225 kts 205°
2026-05-07 01:33 42.41978 -70.84161 6384 ft 226 kts 204°
2026-05-07 01:33 42.40465 -70.84811 6134 ft 225 kts 204°
2026-05-07 01:33 42.38952 -70.85312 6009 ft 229 kts 188°
2026-05-07 01:33 42.37326 -70.85044 5788 ft 241 kts 174°
2026-05-07 01:34 42.35710 -70.84660 5219 ft 238 kts 188°
2026-05-07 01:34 42.34200 -70.85338 4901 ft 219 kts 221°
2026-05-07 01:34 42.33350 -70.86864 4801 ft 200 kts 249°
2026-05-07 01:34 42.33016 -70.88774 4076 ft 216 kts 261°
2026-05-07 01:35 42.32892 -70.90759 3990 ft 211 kts 269°
2026-05-07 01:35 42.33358 -70.92659 4004 ft 215 kts 300°
2026-05-07 01:35 42.34539 -70.93849 3993 ft 216 kts 333°
2026-05-07 01:35 42.36027 -70.94019 4004 ft 213 kts 355°
2026-05-07 01:36 42.37474 -70.93859 3996 ft 206 kts 357°
2026-05-07 01:36 42.38898 -70.93687 4001 ft 206 kts 357°
2026-05-07 01:36 42.40339 -70.93514 4002 ft 208 kts 357°
2026-05-07 01:36 42.41764 -70.93341 3898 ft 204 kts 358°